When you browse on this site, cookies collect data to enhance your experience and personalize the content and advertising you see.
Visit our Privacy Policy to learn more. By continuing to use the site, you agree to this use of cookies and data.
  • In United Kingdom
  • List of Countries
  • For 7 days
  • Water Temperature
  • Satellite Maps
  • Weather Map
  • Weather Widgets
  • user-avatar
    Login

    Hourly Weather Santa Catarina Juquila

    Today, 21 January, Monday

    Time Temperature Precipitation Wind Pressure Humidity
    00:00 +14°C° 0 mm 2 mps 638 mmHg 60%
    01:00 +13°C° 0 mm 2 mps 638 mmHg 59%
    02:00 +13°C° 0 mm 2 mps 638 mmHg 59%
    03:00 +13°C° 0 mm 2 mps 638 mmHg 58%
    04:00 +12°C° 0 mm 2 mps 638 mmHg 59%
    05:00 +12°C° 0 mm 2 mps 638 mmHg 60%
    06:00 +12°C° 0 mm 2 mps 637 mmHg 60%
    07:00 +13°C° 0 mm 2 mps 638 mmHg 54%
    08:00 +15°C° 0 mm 2 mps 639 mmHg 48%
    09:00 +17°C° 0 mm 2 mps 640 mmHg 42%
    10:00 +21°C° 0 mm 1 mps 641 mmHg 35%
    11:00 +24°C° 0 mm 1 mps 641 mmHg 28%
    12:00 +27°C° 0 mm 1 mps 642 mmHg 21%
    13:00 +26°C° 0 mm 1 mps 641 mmHg 24%
    14:00 +26°C° 0 mm 2 mps 641 mmHg 27%
    15:00 +25°C° 0 mm 2 mps 640 mmHg 30%
    16:00 +23°C° 0 mm 2 mps 639 mmHg 42%
    17:00 +21°C° 0 mm 1 mps 638 mmHg 53%
    18:00 +19°C° 0 mm 1 mps 638 mmHg 65%
    19:00 +18°C° 0 mm 1 mps 638 mmHg 69%
    20:00 +15°C° 0 mm 1 mps 638 mmHg 73%
    21:00 +14°C° 0 mm 1 mps 638 mmHg 77%
    22:00 +14°C° 0 mm 1 mps 638 mmHg 73%
    23:00 +14°C° 0 mm 1 mps 638 mmHg 69%

    Tomorrow, 22 January, Tuesday

    Time Temperature Precipitation Wind Pressure Humidity
    00:00 +14°C° 0 mm 1 mps 638 mmHg 65%
    01:00 +13°C° 0 mm 1 mps 637 mmHg 62%
    02:00 +13°C° 0 mm 1 mps 637 mmHg 58%
    03:00 +13°C° 0 mm 2 mps 636 mmHg 54%
    04:00 +13°C° 0 mm 2 mps 636 mmHg 52%
    05:00 +13°C° 0 mm 2 mps 636 mmHg 49%
    06:00 +13°C° 0 mm 2 mps 636 mmHg 46%
    07:00 +15°C° 0 mm 1 mps 637 mmHg 43%
    08:00 +18°C° 0 mm 1 mps 638 mmHg 40%
    09:00 +21°C° 0 mm 1 mps 639 mmHg 37%
    10:00 +23°C° 0 mm 1 mps 640 mmHg 34%
    11:00 +25°C° 0 mm 1 mps 641 mmHg 31%
    12:00 +27°C° 0 mm 2 mps 641 mmHg 28%
    13:00 +26°C° 0 mm 2 mps 640 mmHg 29%
    14:00 +26°C° 0 mm 2 mps 640 mmHg 31%
    15:00 +26°C° 0 mm 2 mps 639 mmHg 33%
    16:00 +24°C° 0 mm 2 mps 638 mmHg 43%
    17:00 +22°C° 0 mm 1 mps 638 mmHg 53%
    18:00 +20°C° 0 mm 1 mps 637 mmHg 63%
    19:00 +19°C° 0 mm 1 mps 637 mmHg 67%
    20:00 +16°C° 0 mm 1 mps 637 mmHg 72%
    21:00 +15°C° 0 mm 1 mps 637 mmHg 76%
    22:00 +15°C° 0 mm 1 mps 637 mmHg 75%
    23:00 +15°C° 0 mm 1 mps 637 mmHg 74%

    Day after tomorrow, 23 January, Wednesday

    Time Temperature Precipitation Wind Pressure Humidity
    00:00 +15°C° 0 mm 1 mps 637 mmHg 73%
    01:00 +14°C° 0 mm 1 mps 637 mmHg 71%
    02:00 +14°C° 0 mm 1 mps 636 mmHg 69%
    03:00 +14°C° 0 mm 2 mps 636 mmHg 66%
    04:00 +14°C° 0 mm 2 mps 636 mmHg 64%
    05:00 +14°C° 0 mm 2 mps 636 mmHg 61%
    06:00 +14°C° 0 mm 2 mps 636 mmHg 59%
    07:00 +16°C° 0 mm 1 mps 637 mmHg 53%
    08:00 +19°C° 0 mm 1 mps 638 mmHg 47%
    09:00 +21°C° 0 mm 1 mps 639 mmHg 41%
    10:00 +23°C° 0 mm 1 mps 640 mmHg 36%
    11:00 +25°C° 0 mm 2 mps 640 mmHg 31%
    12:00 +28°C° 0 mm 2 mps 641 mmHg 25%
    13:00 +28°C° 0 mm 2 mps 640 mmHg 26%
    14:00 +27°C° 0 mm 2 mps 639 mmHg 27%
    15:00 +27°C° 0 mm 3 mps 638 mmHg 27%
    16:00 +25°C° 0 mm 2 mps 638 mmHg 35%
    17:00 +23°C° 0 mm 2 mps 637 mmHg 44%
    18:00 +21°C° 0 mm 1 mps 637 mmHg 52%
    19:00 +20°C° 0 mm 1 mps 637 mmHg 55%
    20:00 +18°C° 0 mm 1 mps 637 mmHg 58%
    21:00 +16°C° 0 mm 1 mps 638 mmHg 62%
    22:00 +16°C° 0 mm 1 mps 638 mmHg 60%
    23:00 +15°C° 0 mm 1 mps 638 mmHg 59%

    24 January, Thursday

    Time Temperature Precipitation Wind Pressure Humidity
    00:00 +15°C° 0 mm 1 mps 638 mmHg 58%
    01:00 +15°C° 0 mm 1 mps 637 mmHg 60%
    02:00 +15°C° 0 mm 1 mps 637 mmHg 62%
    03:00 +14°C° 0 mm 2 mps 636 mmHg 64%
    04:00 +14°C° 0 mm 2 mps 636 mmHg 67%
    05:00 +14°C° 0 mm 2 mps 636 mmHg 70%
    06:00 +14°C° 0 mm 2 mps 636 mmHg 72%
    07:00 +16°C° 0 mm 1 mps 638 mmHg 67%
    08:00 +18°C° 0 mm 1 mps 639 mmHg 61%
    09:00 +20°C° 0 mm 1 mps 640 mmHg 56%
    10:00 +23°C° 0 mm 1 mps 641 mmHg 49%
    11:00 +25°C° 0 mm 1 mps 641 mmHg 42%
    12:00 +28°C° 0 mm 1 mps 642 mmHg 35%
    13:00 +27°C° 0 mm 1 mps 641 mmHg 38%
    14:00 +27°C° 0 mm 2 mps 640 mmHg 40%
    15:00 +26°C° 0 mm 2 mps 639 mmHg 43%
    16:00 +24°C° 0 mm 2 mps 638 mmHg 54%
    17:00 +21°C° 0 mm 2 mps 638 mmHg 64%
    18:00 +20°C° 0 mm 1 mps 637 mmHg 75%
    19:00 +19°C° 0 mm 1 mps 638 mmHg 81%
    20:00 +18°C° 0 mm 1 mps 638 mmHg 87%
    21:00 +16°C° 0 mm 1 mps 638 mmHg 93%
    22:00 +16°C° 0 mm 1 mps 638 mmHg 91%
    23:00 +16°C° 0 mm 1 mps 638 mmHg 89%

    25 January, Friday

    Time Temperature Precipitation Wind Pressure Humidity
    00:00 +15°C° 0 mm 1 mps 638 mmHg 87%
    01:00 +15°C° 0 mm 1 mps 637 mmHg 83%
    02:00 +15°C° 0 mm 1 mps 637 mmHg 79%
    03:00 +14°C° 0 mm 1 mps 636 mmHg 76%
    04:00 +14°C° 0 mm 1 mps 636 mmHg 72%
    05:00 +14°C° 0 mm 1 mps 637 mmHg 69%
    06:00 +14°C° 0 mm 2 mps 637 mmHg 65%
    07:00 +16°C° 0 mm 1 mps 638 mmHg 59%
    08:00 +19°C° 0 mm 1 mps 639 mmHg 52%
    09:00 +21°C° 0 mm 1 mps 641 mmHg 46%
    10:00 +23°C° 0 mm 1 mps 641 mmHg 42%
    11:00 +25°C° 0 mm 1 mps 642 mmHg 39%
    12:00 +28°C° 0 mm 1 mps 642 mmHg 36%
    13:00 +27°C° 0 mm 2 mps 641 mmHg 39%
    14:00 +27°C° 0 mm 2 mps 640 mmHg 43%
    15:00 +26°C° 0 mm 2 mps 640 mmHg 46%
    16:00 +24°C° 0.3 mm 2 mps 639 mmHg 58%
    17:00 +21°C° 0.3 mm 2 mps 639 mmHg 70%
    18:00 +20°C° 0.3 mm 1 mps 639 mmHg 82%
    19:00 +19°C° 0.5 mm 1 mps 639 mmHg 85%
    20:00 +18°C° 0.5 mm 1 mps 639 mmHg 88%
    21:00 +16°C° 0.5 mm 1 mps 639 mmHg 91%
    22:00 +16°C° 0.1 mm 1 mps 639 mmHg 88%
    23:00 +15°C° 0.1 mm 2 mps 639 mmHg 85%

    26 January, Saturday

    Time Temperature Precipitation Wind Pressure Humidity
    00:00 +14°C° 0.1 mm 2 mps 638 mmHg 81%
    01:00 +14°C° 0 mm 2 mps 638 mmHg 78%
    02:00 +13°C° 0 mm 2 mps 637 mmHg 76%
    03:00 +12°C° 0 mm 2 mps 637 mmHg 73%
    04:00 +12°C° 0 mm 2 mps 637 mmHg 72%
    05:00 +12°C° 0 mm 2 mps 637 mmHg 70%
    06:00 +12°C° 0 mm 2 mps 637 mmHg 69%
    07:00 +14°C° 0 mm 2 mps 638 mmHg 64%
    08:00 +16°C° 0 mm 2 mps 639 mmHg 58%
    09:00 +18°C° 0 mm 2 mps 640 mmHg 53%
    10:00 +21°C° 0 mm 1 mps 641 mmHg 45%
    11:00 +24°C° 0 mm 1 mps 641 mmHg 38%
    12:00 +27°C° 0 mm 1 mps 642 mmHg 30%
    13:00 +26°C° 0 mm 2 mps 641 mmHg 32%
    14:00 +26°C° 0 mm 2 mps 640 mmHg 35%
    15:00 +25°C° 0 mm 3 mps 639 mmHg 37%
    16:00 +23°C° 0 mm 2 mps 638 mmHg 45%
    17:00 +21°C° 0 mm 2 mps 638 mmHg 53%
    18:00 +20°C° 0 mm 1 mps 637 mmHg 62%
    19:00 +18°C° 0 mm 1 mps 637 mmHg 67%
    20:00 +16°C° 0 mm 1 mps 637 mmHg 72%
    21:00 +15°C° 0 mm 1 mps 637 mmHg 78%
    22:00 +14°C° 0 mm 1 mps 637 mmHg 77%
    23:00 +14°C° 0 mm 1 mps 637 mmHg 77%
    Show more